GW2898 Weather Reports


Display with metric or nautical units.
time (UTC)temp
F
wind
direction
speed
MPH
gust
MPH
rain 1hr
in
rain 24hr
in
rain mn
in
humidity
%
barometer
mb
20260502170430 86 77 3.0 10.0 0.00 0.00 0.00 30 1017.3
20260502163913 84 181 2.0 8.0 0.00 0.00 0.00 31 1017.3
20260502163409 85 182 5.0 7.0 0.00 0.00 0.00 30 1017.0
20260502162907 85 202 3.0 8.0 0.00 0.00 0.00 29 1017.4
20260502162358 83 161 2.0 8.0 0.00 0.00 0.00 31 1017.2
20260502161855 84 86 1.0 5.0 0.00 0.00 0.00 31 1017.2
20260502161351 84 145 2.0 9.0 0.00 0.00 0.00 31 1017.1
20260502160849 83 202 3.0 5.0 0.00 0.00 0.00 33 1017.4
20260502160348 83 108 2.0 9.0 0.00 0.00 0.00 32 1017.3
20260502152328 81 41 5.0 10.0 0.00 0.00 0.00 32 1017.0
20260502151825 82 37 1.0 6.0 0.00 0.00 0.00 33 1016.9
20260502151322 81 111 1.0 4.0 0.00 0.00 0.00 32 1016.9
20260502150820 81 73 0.0 4.0 0.00 0.00 0.00 31 1016.8
20260502150316 80 94 3.0 5.0 0.00 0.00 0.00 32 1016.9
20260502130704 62 61 1.0 2.0 0.00 0.00 0.00 51 1015.3
20260502130202 61 115 0.0 2.0 0.00 0.00 0.00 53 1015.2
20260502123647 59 70 2.0 3.0 0.00 0.00 0.00 54 1015.1
20260502123144 59 151 1.0 2.0 0.00 0.00 0.00 54 1015.0
20260502122640 59 86 1.0 2.0 0.00 0.00 0.00 53 1014.8
20260502122137 59 46 0.0 2.0 0.00 0.00 0.00 54 1014.8
20260502121636 59 62 3.0 3.0 0.00 0.00 0.00 53 1014.8
20260502121133 59 164 0.0 3.0 0.00 0.00 0.00 53 1014.7
20260502120629 59 175 0.0 3.0 0.00 0.00 0.00 52 1014.6
20260502120126 60 102 2.0 3.0 0.00 0.00 0.00 52 1014.8
20260502115624 60 82 1.0 3.0 0.00 0.00 0.00 51 1014.7
20260502115119 60 175 0.0 2.0 0.00 0.00 0.00 52 1014.5
20260502114616 60 22 3.0 4.0 0.00 0.00 0.00 52 1014.4
20260502114113 60 101 0.0 3.0 0.00 0.00 0.00 50 1014.5
20260502113610 60 91 1.0 2.0 0.00 0.00 0.00 49 1014.5
20260502113109 60 88 2.0 3.0 0.00 0.00 0.00 50 1014.4
20260502112606 60 146 0.0 2.0 0.00 0.00 0.00 48 1014.5
20260502112104 60 35 2.0 2.0 0.00 0.00 0.00 49 1014.3
20260502111601 60 89 1.0 2.0 0.00 0.00 0.00 48 1014.4
20260502111058 61 81 0.0 2.0 0.00 0.00 0.00 46 1014.5
20260502110556 61 89 1.0 3.0 0.00 0.00 0.00 45 1014.4
20260502110053 62 142 0.0 2.0 0.00 0.00 0.00 46 1014.3
20260502105550 62 53 0.0 1.0 0.00 0.00 0.00 45 1014.5
20260502105048 62 139 1.0 2.0 0.00 0.00 0.00 44 1014.3
20260502104545 64 80 1.0 2.0 0.00 0.00 0.00 43 1014.3
20260502104042 64 36 1.0 2.0 0.00 0.00 0.00 42 1014.3
20260502103540 64 16 1.0 2.0 0.00 0.00 0.00 43 1014.4
20260502103038 64 37 1.0 3.0 0.00 0.00 0.00 43 1014.3
20260502102534 65 140 1.0 2.0 0.00 0.00 0.00 40 1014.0
20260502102031 66 88 1.0 3.0 0.00 0.00 0.00 38 1014.3
20260502101529 64 188 2.0 2.0 0.00 0.00 0.00 42 1014.2
20260502101027 64 61 1.0 3.0 0.00 0.00 0.00 43 1014.1
20260502100525 64 72 0.0 2.0 0.00 0.00 0.00 42 1014.3
20260502091500 65 46 1.0 2.0 0.00 0.00 0.00 40 1013.9
20260502090957 65 42 1.0 2.0 0.00 0.00 0.00 39 1014.0
20260502090454 66 133 0.0 2.0 0.00 0.00 0.00 38 1013.8
20260502071349 66 141 0.0 2.0 0.00 0.00 0.00 34 1013.5
20260502070847 66 139 0.0 2.0 0.00 0.00 0.00 35 1013.4
20260502070344 66 37 0.0 2.0 0.00 0.00 0.00 35 1013.3
20260502065843 66 110 0.0 2.0 0.00 0.00 0.00 35 1013.5
20260502065340 66 89 0.0 2.0 0.00 0.00 0.00 35 1013.5
20260502064838 66 93 1.0 2.0 0.00 0.00 0.00 37 1013.4
20260502064336 66 55 0.0 2.0 0.00 0.00 0.00 37 1013.5
20260502063833 66 87 1.0 2.0 0.00 0.00 0.00 39 1013.4
20260502063331 67 63 0.0 2.0 0.00 0.00 0.00 38 1013.4
20260502062828 67 135 0.0 2.0 0.00 0.00 0.00 36 1013.5
20260502062325 66 104 0.0 2.0 0.00 0.00 0.00 40 1013.3
20260502061824 67 53 0.0 1.0 0.00 0.00 0.00 39 1013.6
20260502061321 67 145 0.0 1.0 0.00 0.00 0.00 38 1013.3
20260502060817 68 49 0.0 2.0 0.00 0.00 0.00 37 1013.4
20260502060312 67 39 0.0 2.0 0.00 0.00 0.00 38 1013.0
20260502055810 68 39 0.0 2.0 0.00 0.00 0.00 38 1013.1
20260502055308 68 37 0.0 2.0 0.00 0.00 0.00 35 1013.1
20260502054807 68 169 0.0 2.0 0.00 0.00 0.00 36 1013.3
20260502054304 67 171 0.0 2.0 0.00 0.00 0.00 37 1013.3
20260502053801 67 129 0.0 0.0 0.00 0.00 0.00 38 1013.2
20260502053259 68 146 0.0 2.0 0.00 0.00 0.00 36 1013.1
20260502052756 68 129 0.0 1.0 0.00 0.00 0.00 37 1013.0
20260502052254 68 118 0.0 2.0 0.00 0.00 0.00 36 1012.7
20260502051752 68 76 1.0 2.0 0.00 0.00 0.00 37 1013.0
20260502051251 68 101 2.0 2.0 0.00 0.00 0.00 37 1012.8
20260502050746 67 142 0.0 2.0 0.00 0.00 0.00 38 1012.7
20260502050242 68 142 0.0 2.0 0.00 0.00 0.00 38 1012.8
20260502045740 69 108 0.0 2.0 0.00 0.00 0.00 37 1012.7
20260502045236 68 102 1.0 2.0 0.00 0.00 0.00 37 1013.0
20260502044733 68 67 0.0 2.0 0.00 0.00 0.00 37 1012.7
20260502044229 68 119 0.0 1.0 0.00 0.00 0.00 37 1013.0
20260502043727 69 145 0.0 1.0 0.00 0.00 0.00 35 1012.7
20260502043225 68 120 1.0 2.0 0.00 0.00 0.00 36 1012.7
20260502042724 69 53 1.0 2.0 0.00 0.00 0.00 36 1012.7
20260502042221 69 147 0.0 1.0 0.00 0.00 0.00 36 1012.7
20260502041719 69 141 0.0 1.0 0.00 0.00 0.00 37 1012.7
20260502041216 69 37 0.0 1.0 0.00 0.00 0.00 37 1012.6
20260502040713 70 134 0.0 1.0 0.00 0.00 0.00 35 1012.6
20260502040210 71 117 0.0 1.0 0.00 0.00 0.00 34 1012.1
20260502035706 71 15 0.0 1.0 0.00 0.00 0.00 34 1012.4
20260502035203 71 88 0.0 1.0 0.00 0.00 0.00 33 1012.2
20260502034700 72 44 0.0 1.0 0.00 0.00 0.00 32 1012.2
20260502034159 73 130 0.0 1.0 0.00 0.00 0.00 31 1012.0
20260502033656 73 37 0.0 1.0 0.00 0.00 0.00 30 1012.3
20260502033154 73 89 0.0 1.0 0.00 0.00 0.00 31 1012.0
20260502032650 74 110 0.0 0.0 0.00 0.00 0.00 29 1011.9
20260502032146 74 104 0.0 1.0 0.00 0.00 0.00 29 1011.7
20260502031644 74 38 0.0 1.0 0.00 0.00 0.00 29 1011.8
20260502031142 74 147 0.0 0.0 0.00 0.00 0.00 28 1011.7
20260502030641 74 135 0.0 0.0 0.00 0.00 0.00 27 1011.8
20260502030138 74 135 0.0 0.0 0.00 0.00 0.00 27 1011.7
20260502025635 75 104 0.0 0.0 0.00 0.00 0.00 26 1011.6
20260502025133 76 104 0.0 0.0 0.00 0.00 0.00 26 1011.4
20260502024631 76 104 0.0 1.0 0.00 0.00 0.00 25 1011.4
20260502024128 78 75 0.0 0.0 0.00 0.00 0.00 24 1011.4
20260502023626 78 124 0.0 0.0 0.00 0.00 0.00 23 1011.3
20260502023123 79 336 0.0 0.0 0.00 0.00 0.00 22 1011.3
20260502022620 81 336 0.0 0.0 0.00 0.00 0.00 21 1011.3
20260502022117 83 336 0.0 1.0 0.00 0.00 0.00 20 1011.2
20260502021615 84 23 1.0 2.0 0.00 0.00 0.00 20 1011.1
20260502021111 84 296 1.0 3.0 0.00 0.00 0.00 19 1011.2
20260502020609 84 242 0.0 3.0 0.00 0.00 0.00 19 1011.2
20260502020106 84 247 4.0 5.0 0.00 0.00 0.00 19 1011.2
20260502015604 84 306 0.0 3.0 0.00 0.00 0.00 20 1011.3
20260502015100 84 211 1.0 3.0 0.00 0.00 0.00 20 1011.3
20260502014557 85 330 0.0 2.0 0.00 0.00 0.00 20 1011.1
20260502014054 85 340 1.0 3.0 0.00 0.00 0.00 20 1011.1
20260502013549 85 349 2.0 5.0 0.00 0.00 0.00 19 1011.0
20260502013046 86 208 2.0 3.0 0.00 0.00 0.00 20 1011.0
20260502012543 86 336 7.0 7.0 0.00 0.00 0.00 19 1011.2
20260502012041 86 5 3.0 6.0 0.00 0.00 0.00 18 1011.1
20260502011537 86 248 2.0 4.0 0.00 0.00 0.00 20 1010.9
20260502011033 86 296 1.0 5.0 0.00 0.00 0.00 20 1011.0
20260502010531 87 339 3.0 7.0 0.00 0.00 0.00 19 1010.9
20260502010027 88 333 4.0 6.0 0.00 0.00 0.00 18 1010.9
20260502005525 88 321 4.0 9.0 0.00 0.00 0.00 19 1011.0
20260502005023 88 285 1.0 9.0 0.00 0.00 0.00 20 1011.0
20260502004518 88 336 5.0 7.0 0.00 0.00 0.00 19 1011.0
20260502004015 88 325 6.0 10.0 0.00 0.00 0.00 19 1010.8
20260502003513 88 332 4.0 9.0 0.00 0.00 0.00 20 1010.8
20260502003010 88 345 2.0 9.0 0.00 0.00 0.00 20 1010.8
20260502002506 88 312 4.0 10.0 0.00 0.00 0.00 20 1011.0
20260502002004 89 304 3.0 8.0 0.00 0.00 0.00 20 1011.1
20260502001501 89 273 3.0 8.0 0.00 0.00 0.00 20 1011.0
20260502000958 89 300 4.0 8.0 0.00 0.00 0.00 19 1011.1
20260502000457 89 327 5.0 9.0 0.00 0.00 0.00 20 1011.1
20260501235953 88 317 3.0 10.0 0.00 0.00 0.00 20 1011.2
20260501235448 89 299 5.0 7.0 0.00 0.00 0.00 21 1010.9
20260501234944 89 346 3.0 8.0 0.00 0.00 0.00 20 1011.1
20260501234440 89 258 4.0 6.0 0.00 0.00 0.00 21 1011.1
20260501233940 89 247 3.0 8.0 0.00 0.00 0.00 21 1011.1
20260501233437 89 249 7.0 10.0 0.00 0.00 0.00 21 1011.3
20260501232932 90 323 3.0 9.0 0.00 0.00 0.00 21 1011.3
20260501232430 89 337 2.0 5.0 0.00 0.00 0.00 22 1011.3
20260501231927 89 18 1.0 3.0 0.00 0.00 0.00 19 1011.3
20260501231425 88 333 4.0 8.0 0.00 0.00 0.00 19 1011.1
20260501230923 89 311 9.0 13.0 0.00 0.00 0.00 22 1011.4
20260501230421 88 250 5.0 9.0 0.00 0.00 0.00 22 1011.4
20260501225918 88 328 4.0 7.0 0.00 0.00 0.00 22 1011.3
20260501225416 88 327 4.0 12.0 0.00 0.00 0.00 22 1011.5
20260501224911 89 331 3.0 8.0 0.00 0.00 0.00 21 1011.3
20260501224409 89 325 7.0 11.0 0.00 0.00 0.00 22 1011.3
20260501223906 89 328 4.0 8.0 0.00 0.00 0.00 23 1011.5
20260501223402 89 281 1.0 11.0 0.00 0.00 0.00 22 1011.6
20260501222858 89 255 3.0 6.0 0.00 0.00 0.00 24 1011.7
20260501222355 88 352 4.0 9.0 0.00 0.00 0.00 23 1011.7
20260501221852 88 347 3.0 5.0 0.00 0.00 0.00 25 1011.6
20260501221349 88 258 8.0 12.0 0.00 0.00 0.00 23 1011.9
20260501220847 89 220 1.0 3.0 0.00 0.00 0.00 24 1011.8
20260501220344 89 300 2.0 5.0 0.00 0.00 0.00 23 1012.0
20260501215840 90 293 2.0 6.0 0.00 0.00 0.00 23 1012.1
20260501215337 89 59 3.0 6.0 0.00 0.00 0.00 23 1011.9
20260501214832 88 109 2.0 3.0 0.00 0.00 0.00 23 1012.2
20260501214328 87 83 3.0 6.0 0.00 0.00 0.00 23 1012.0
20260501213824 87 317 3.0 8.0 0.00 0.00 0.00 25 1012.6
20260501213321 87 269 0.0 4.0 0.00 0.00 0.00 22 1012.3
20260501212816 86 76 1.0 6.0 0.00 0.00 0.00 23 1012.6
20260501212313 87 297 4.0 5.0 0.00 0.00 0.00 23 1012.4
20260501211811 86 159 2.0 6.0 0.00 0.00 0.00 22 1012.4
20260501211308 88 207 4.0 6.0 0.00 0.00 0.00 23 1012.6
20260501210804 86 104 0.0 5.0 0.00 0.00 0.00 22 1012.8
20260501210301 86 265 0.0 6.0 0.00 0.00 0.00 23 1013.1
20260501205757 87 196 3.0 8.0 0.00 0.00 0.00 25 1012.8
20260501205254 86 78 1.0 4.0 0.00 0.00 0.00 26 1013.0
20260501204751 87 227 2.0 3.0 0.00 0.00 0.00 26 1013.2
20260501204248 84 94 2.0 7.0 0.00 0.00 0.00 25 1013.1
20260501203744 85 157 3.0 6.0 0.00 0.00 0.00 25 1013.0
20260501203242 86 209 3.0 7.0 0.00 0.00 0.00 27 1013.3
20260501202739 85 222 3.0 8.0 0.00 0.00 0.00 26 1013.4
20260501202235 85 215 2.0 5.0 0.00 0.00 0.00 26 1013.4
20260501201732 85 221 4.0 7.0 0.00 0.00 0.00 27 1013.4
20260501201229 85 109 2.0 4.0 0.00 0.00 0.00 26 1013.5
20260501200726 84 102 6.0 7.0 0.00 0.00 0.00 27 1013.3
20260501200223 86 89 3.0 6.0 0.00 0.00 0.00 25 1013.4
20260501195720 85 54 0.0 3.0 0.00 0.00 0.00 29 1013.4
20260501195216 83 173 0.0 5.0 0.00 0.00 0.00 25 1013.4
20260501194713 83 307 1.0 8.0 0.00 0.00 0.00 27 1013.8
20260501194208 82 211 2.0 9.0 0.00 0.00 0.00 26 1013.9
20260501193705 84 206 3.0 8.0 0.00 0.00 0.00 28 1013.8
20260501193204 83 243 6.0 7.0 0.00 0.00 0.00 26 1013.9
20260501192700 83 51 2.0 5.0 0.00 0.00 0.00 25 1013.8
20260501192158 84 104 3.0 6.0 0.00 0.00 0.00 27 1013.9
20260501191655 82 83 5.0 9.0 0.00 0.00 0.00 27 1014.1
20260501191152 82 75 4.0 11.0 0.00 0.00 0.00 27 1014.2
20260501190649 83 5 2.0 5.0 0.00 0.00 0.00 26 1014.1
20260501190144 81 264 2.0 5.0 0.00 0.00 0.00 28 1014.4
20260501185640 82 330 4.0 8.0 0.00 0.00 0.00 28 1014.4
20260501185136 82 322 3.0 9.0 0.00 0.00 0.00 29 1014.1
20260501184632 83 308 1.0 5.0 0.00 0.00 0.00 27 1014.5
20260501184127 83 297 3.0 6.0 0.00 0.00 0.00 28 1014.7
20260501183624 82 242 0.0 3.0 0.00 0.00 0.00 27 1014.6
20260501183120 82 313 3.0 6.0 0.00 0.00 0.00 28 1014.8
20260501182617 81 318 2.0 4.0 0.00 0.00 0.00 31 1014.9
20260501182114 80 229 1.0 4.0 0.00 0.00 0.00 29 1014.8
20260501181611 81 234 4.0 8.0 0.00 0.00 0.00 31 1015.0
20260501181108 82 220 3.0 4.0 0.00 0.00 0.00 30 1015.2
20260501180606 81 253 2.0 4.0 0.00 0.00 0.00 30 1015.3